Radiation Dose at Monitoring Post of Fukushima Daini Nuclear Power Station
Date,Time,MP-1(microSv/h),MP-2(microSv/h),MP-3(microSv/h),MP-4(microSv/h),MP-5(microSv/h),MP-6(microSv/h),MP-7(microSv/h),Wind Direction,Wind Velocity(m/s),Rain
2018/12/19,00:00,0.229,0.190,0.307,0.288,0.277,0.155,0.095,northwest,3.8,No
2018/12/19,00:10,0.228,0.190,0.307,0.289,0.276,0.155,0.094,northwest,4.7,No
2018/12/19,00:20,0.229,0.191,0.308,0.289,0.276,0.156,0.096,northwest,5.6,No
2018/12/19,00:30,0.229,0.191,0.307,0.289,0.276,0.156,0.095,west-northwest,7.1,No
2018/12/19,00:40,0.229,0.191,0.307,0.289,0.276,0.155,0.094,west,7.0,No
2018/12/19,00:50,0.228,0.189,0.306,0.289,0.277,0.155,0.095,west-northwest,7.0,No
2018/12/19,01:00,0.228,0.190,0.307,0.289,0.276,0.155,0.094,west-northwest,5.8,No
2018/12/19,01:10,0.230,0.191,0.307,0.290,0.276,0.156,0.094,west,6.9,No
2018/12/19,01:20,0.228,0.190,0.307,0.289,0.277,0.155,0.096,west-northwest,5.9,No
2018/12/19,01:30,0.228,0.190,0.307,0.289,0.277,0.155,0.095,west,6.7,No
2018/12/19,01:40,0.228,0.191,0.308,0.289,0.276,0.155,0.095,west-northwest,8.2,No
2018/12/19,01:50,0.228,0.191,0.308,0.290,0.276,0.154,0.094,west,9.6,No
2018/12/19,02:00,0.229,0.190,0.307,0.289,0.276,0.155,0.095,west,10.6,No
2018/12/19,02:10,0.228,0.190,0.307,0.289,0.276,0.156,0.095,west,7.6,No
2018/12/19,02:20,0.229,0.189,0.308,0.289,0.277,0.155,0.095,west,6.8,No
2018/12/19,02:30,0.229,0.192,0.307,0.289,0.276,0.155,0.096,west,7.0,No
2018/12/19,02:40,0.228,0.190,0.307,0.289,0.277,0.156,0.096,west-northwest,7.8,No
2018/12/19,02:50,0.228,0.191,0.308,0.289,0.276,0.156,0.095,west,7.3,No
2018/12/19,03:00,0.228,0.191,0.309,0.288,0.277,0.156,0.095,west,6.7,No
2018/12/19,03:10,0.228,0.191,0.307,0.288,0.276,0.155,0.095,west-northwest,8.7,No
2018/12/19,03:20,0.229,0.191,0.306,0.290,0.277,0.155,0.095,northwest,7.3,No
2018/12/19,03:30,0.228,0.190,0.308,0.290,0.278,0.155,0.094,northwest,5.8,No
2018/12/19,03:40,0.229,0.190,0.309,0.287,0.276,0.155,0.095,northwest,6.7,No
2018/12/19,03:50,0.228,0.191,0.309,0.288,0.276,0.156,0.095,northwest,6.3,No
2018/12/19,04:00,0.229,0.191,0.308,0.288,0.277,0.154,0.095,north-northwest,7.5,No
2018/12/19,04:10,0.230,0.191,0.307,0.289,0.277,0.156,0.096,northwest,6.5,No
2018/12/19,04:20,0.230,0.191,0.307,0.288,0.276,0.155,0.095,north-northwest,7.3,No
2018/12/19,04:30,0.229,0.191,0.308,0.288,0.276,0.156,0.095,northwest,6.6,No
2018/12/19,04:40,0.229,0.191,0.307,0.288,0.276,0.156,0.095,north-northwest,4.8,No
2018/12/19,04:50,0.229,0.191,0.307,0.289,0.277,0.155,0.094,north-northwest,3.2,No
2018/12/19,05:00,0.228,0.191,0.306,0.288,0.276,0.156,0.095,north-northwest,3.6,No
2018/12/19,05:10,0.228,0.190,0.307,0.288,0.276,0.155,0.095,north-northwest,2.7,No
2018/12/19,05:20,0.228,0.190,0.308,0.287,0.277,0.155,0.095,north,3.8,No
2018/12/19,05:30,0.229,0.190,0.307,0.287,0.276,0.155,0.094,north,2.4,No
2018/12/19,05:40,0.230,0.191,0.306,0.288,0.277,0.156,0.096,north,2.2,No
2018/12/19,05:50,0.228,0.190,0.307,0.289,0.276,0.155,0.096,north-northwest,1.4,No
2018/12/19,06:00,0.229,0.190,0.308,0.288,0.275,0.154,0.096,north-northwest,0.9,No
2018/12/19,06:10,0.229,0.191,0.307,0.288,0.276,0.155,0.094,-,CALM,No
2018/12/19,06:20,0.229,0.190,0.306,0.288,0.275,0.155,0.095,northeast,0.9,No
2018/12/19,06:30,0.229,0.189,0.306,0.288,0.275,0.155,0.095,-,CALM,No
2018/12/19,06:40,0.228,0.190,0.308,0.288,0.275,0.156,0.095,south-southeast,0.7,No
2018/12/19,06:50,0.229,0.191,0.307,0.289,0.276,0.156,0.095,south-southeast,1.6,No
2018/12/19,07:00,0.229,0.190,0.306,0.289,0.276,0.156,0.095,south,2.8,No
2018/12/19,07:10,0.228,0.192,0.307,0.288,0.277,0.155,0.095,south,3.1,No
2018/12/19,07:20,0.229,0.190,0.306,0.289,0.276,0.156,0.095,west-southwest,2.4,No
2018/12/19,07:30,0.229,0.191,0.308,0.288,0.276,0.155,0.095,southwest,4.2,No
2018/12/19,07:40,0.228,0.191,0.305,0.288,0.275,0.155,0.095,southwest,3.3,No
2018/12/19,07:50,0.228,0.190,0.309,0.288,0.275,0.155,0.095,west-southwest,3.5,No
2018/12/19,08:00,0.230,0.191,0.307,0.287,0.277,0.156,0.094,west-southwest,3.7,No
2018/12/19,08:10,0.229,0.190,0.306,0.288,0.275,0.155,0.094,west,4.2,No
2018/12/19,08:20,0.228,0.190,0.306,0.287,0.276,0.157,0.094,west-northwest,4.9,No
2018/12/19,08:30,0.229,0.190,0.307,0.287,0.275,0.155,0.095,west-northwest,4.3,No
2018/12/19,08:40,0.229,0.190,0.307,0.288,0.275,0.154,0.094,west,3.2,No
2018/12/19,08:50,0.227,0.190,0.307,0.286,0.276,0.155,0.095,west-northwest,2.1,No
2018/12/19,09:00,0.228,0.190,0.305,0.287,0.277,0.154,0.094,west-northwest,2.6,No
2018/12/19,09:10,0.229,0.190,0.306,0.286,0.276,0.155,0.095,west-southwest,1.6,No
2018/12/19,09:20,0.229,0.190,0.307,0.286,0.275,0.156,0.094,southwest,2.0,No
2018/12/19,09:30,0.229,0.188,0.306,0.287,0.275,0.154,0.094,west,2.8,No
2018/12/19,09:40,0.230,0.189,0.307,0.286,0.275,0.152,0.094,west,2.1,No
2018/12/19,09:50,0.229,0.190,0.307,0.288,0.275,0.153,0.095,south-southwest,1.4,No
2018/12/19,10:00,0.228,0.189,0.307,0.287,0.277,0.153,0.095,south-southwest,1.8,No
2018/12/19,10:10,0.228,0.190,0.307,0.288,0.275,-,0.094,south,2.0,No
2018/12/19,10:20,0.228,0.189,0.308,0.288,0.277,-,0.095,south-southeast,2.9,No
2018/12/19,10:30,0.228,0.190,0.306,0.285,0.275,-,0.095,south,3.6,No
2018/12/19,10:40,0.227,0.190,0.307,0.289,0.277,-,0.095,southwest,4.8,No
2018/12/19,10:50,0.227,0.190,0.306,0.287,0.274,-,0.094,southwest,6.5,No
2018/12/19,11:00,0.227,0.190,0.307,0.288,0.277,-,0.095,west-southwest,6.8,No
2018/12/19,11:10,0.228,0.189,0.306,0.287,0.274,-,0.094,southwest,6.5,No
2018/12/19,11:20,0.227,0.191,0.306,0.289,0.278,-,0.095,west-southwest,5.9,No
2018/12/19,11:30,0.227,0.189,0.307,0.290,0.275,-,0.095,southwest,5.0,No
2018/12/19,11:40,0.227,0.190,0.305,0.288,0.277,-,0.095,southwest,6.0,No
2018/12/19,11:50,0.228,0.191,0.306,0.289,0.275,-,0.095,south-southeast,6.5,No
2018/12/19,12:00,0.227,0.189,0.306,0.288,0.276,-,0.095,south-southeast,7.7,No
2018/12/19,12:10,0.227,0.191,0.305,0.290,0.276,-,0.096,south-southeast,8.5,No
2018/12/19,12:20,0.228,0.189,0.307,0.289,0.278,-,0.095,south,8.4,No
2018/12/19,12:30,0.228,0.191,0.306,0.290,0.276,-,0.096,south,9.0,No
2018/12/19,12:40,0.228,0.189,0.307,0.289,0.278,-,0.095,south,8.5,No
2018/12/19,12:50,0.226,0.189,0.308,0.288,0.275,-,0.095,south,7.7,No
2018/12/19,13:00,0.228,0.190,0.307,0.289,0.278,-,0.095,south,7.0,No
2018/12/19,13:10,0.227,0.190,0.306,0.288,0.277,-,0.095,south,6.8,No
2018/12/19,13:20,0.229,0.190,0.306,0.289,0.278,-,0.095,south,5.9,No
2018/12/19,13:30,0.227,0.190,0.307,0.287,0.277,-,0.095,south,6.0,No
2018/12/19,13:40,0.228,0.191,0.306,0.289,0.276,-,0.094,southwest,3.3,No
2018/12/19,13:50,0.227,0.190,0.308,0.286,0.278,-,0.095,southwest,4.0,No
2018/12/19,14:00,0.228,0.190,0.306,0.288,0.277,-,0.094,west-southwest,4.8,No
2018/12/19,14:10,0.228,0.190,0.307,0.288,0.276,-,0.094,southwest,5.8,No
2018/12/19,14:20,0.231,0.191,0.307,0.288,0.278,-,0.095,southwest,5.8,No
2018/12/19,14:30,0.229,0.190,0.306,0.290,0.274,-,0.094,south-southwest,3.9,No
2018/12/19,14:40,0.229,0.192,0.308,0.290,0.278,-,0.095,southwest,5.7,No
2018/12/19,14:50,0.228,0.191,0.307,0.289,0.277,-,0.095,south-southwest,4.9,No
2018/12/19,15:00,0.229,0.191,0.306,0.289,0.275,-,0.095,south-southwest,4.7,No
2018/12/19,15:10,0.229,0.191,0.308,0.287,0.278,-,0.095,southwest,5.7,No
2018/12/19,15:20,0.228,0.191,0.305,0.291,0.276,0.152,0.095,south-southwest,5.3,No
2018/12/19,15:30,0.229,0.190,0.308,0.289,0.279,0.155,0.095,southwest,6.9,No
2018/12/19,15:40,0.229,0.190,0.308,0.288,0.277,0.155,0.095,southwest,5.3,No
2018/12/19,15:50,0.229,0.191,0.305,0.289,0.277,0.154,0.095,southwest,3.9,No
2018/12/19,16:00,0.229,0.191,0.309,0.288,0.279,0.155,0.094,southwest,5.5,No
2018/12/19,16:10,0.229,0.191,0.308,0.290,0.276,0.154,0.095,west-southwest,5.4,No
2018/12/19,16:20,0.228,0.190,0.307,0.290,0.279,0.155,0.095,west-southwest,5.4,No
2018/12/19,16:30,0.229,0.191,0.309,0.289,0.277,0.155,0.095,west,6.7,No
2018/12/19,16:40,0.230,0.191,0.307,0.292,0.278,0.156,0.096,west,6.9,No
2018/12/19,16:50,0.229,0.190,0.308,0.288,0.279,0.155,0.097,west-southwest,6.4,No
2018/12/19,17:00,0.229,0.191,0.309,0.290,0.278,0.156,0.096,west-southwest,9.2,Yes
2018/12/19,17:10,0.228,0.193,0.308,0.292,0.279,0.157,0.097,west-southwest,10.7,Yes
2018/12/19,17:20,0.232,0.193,0.310,0.293,0.281,0.160,0.100,west-southwest,10.6,Yes
2018/12/19,17:30,0.233,0.195,0.313,0.293,0.281,0.164,0.103,west-southwest,5.0,Yes
2018/12/19,17:40,0.233,0.194,0.311,0.295,0.281,0.163,0.102,west-southwest,2.7,No
2018/12/19,17:50,0.232,0.194,0.311,0.294,0.282,0.162,0.102,southwest,1.5,No
2018/12/19,18:00,0.232,0.194,0.312,0.293,0.280,0.160,0.100,southwest,2.5,No
2018/12/19,18:10,0.231,0.194,0.312,0.292,0.279,0.159,0.100,west-southwest,5.5,No
2018/12/19,18:20,0.233,0.193,0.309,0.292,0.277,0.158,0.100,west-southwest,6.7,No
2018/12/19,18:30,0.231,0.192,0.308,0.290,0.278,0.158,0.098,west-southwest,3.6,No
2018/12/19,18:40,0.230,0.192,0.310,0.291,0.278,0.156,0.097,west-southwest,1.7,No
2018/12/19,18:50,0.230,0.192,0.307,0.290,0.277,0.156,0.098,west-northwest,2.4,No
2018/12/19,19:00,0.230,0.191,0.309,0.291,0.276,0.156,0.096,west-northwest,6.7,No
2018/12/19,19:10,0.230,0.190,0.307,0.290,0.277,0.156,0.095,west,8.4,No
2018/12/19,19:20,0.229,0.191,0.308,0.289,0.275,0.155,0.096,west,5.0,No
2018/12/19,19:30,0.229,0.190,0.308,0.289,0.276,0.154,0.096,west-northwest,4.5,No
2018/12/19,19:40,0.230,0.192,0.307,0.288,0.275,0.154,0.095,west-northwest,6.9,No
2018/12/19,19:50,0.229,0.190,0.307,0.288,0.277,0.154,0.096,west,8.8,No
2018/12/19,20:00,0.229,0.190,0.308,0.288,0.275,0.154,0.094,west,3.3,No
2018/12/19,20:10,0.229,0.190,0.307,0.289,0.275,0.154,0.095,north-northwest,2.1,No
2018/12/19,20:20,0.229,0.191,0.306,0.290,0.276,0.153,0.095,west,4.0,No
2018/12/19,20:30,0.228,0.189,0.307,0.289,0.276,0.155,0.094,west-northwest,4.7,No
2018/12/19,20:40,0.229,0.191,0.307,0.288,0.275,0.154,0.095,west,3.1,No
2018/12/19,20:50,0.228,0.190,0.306,0.289,0.276,0.154,0.094,west-northwest,3.9,No
2018/12/19,21:00,0.228,0.190,0.307,0.289,0.275,0.153,0.095,west-northwest,3.2,No
2018/12/19,21:10,0.229,0.189,0.307,0.288,0.276,0.153,0.095,west-northwest,3.0,No
2018/12/19,21:20,0.230,0.190,0.307,0.288,0.276,0.154,0.094,-,CALM,No
2018/12/19,21:30,0.228,0.189,0.308,0.288,0.276,0.154,0.094,southeast,1.2,No
2018/12/19,21:40,0.229,0.190,0.306,0.287,0.277,0.154,0.095,east,1.7,No
2018/12/19,21:50,0.228,0.190,0.306,0.288,0.276,0.154,0.095,southeast,0.6,No
2018/12/19,22:00,0.229,0.190,0.307,0.288,0.276,0.153,0.094,north-northeast,1.9,No
2018/12/19,22:10,0.228,0.190,0.308,0.288,0.276,0.153,0.095,north,2.5,No
2018/12/19,22:20,0.230,0.190,0.306,0.288,0.277,0.153,0.094,north,3.8,No
2018/12/19,22:30,0.229,0.190,0.308,0.288,0.275,0.154,0.095,north-northwest,4.1,No
2018/12/19,22:40,0.229,0.191,0.307,0.288,0.277,0.153,0.095,north-northwest,3.5,No
2018/12/19,22:50,0.227,0.191,0.307,0.289,0.275,0.153,0.094,northwest,2.5,No
2018/12/19,23:00,0.228,0.190,0.307,0.287,0.275,0.153,0.095,north-northwest,2.8,No
2018/12/19,23:10,0.229,0.190,0.308,0.290,0.274,0.153,0.095,north-northeast,1.3,No
2018/12/19,23:20,0.228,0.191,0.307,0.288,0.276,0.153,0.095,east-northeast,2.3,No
2018/12/19,23:30,0.229,0.190,0.306,0.288,0.276,0.153,0.094,southeast,1.1,No
2018/12/19,23:40,0.230,0.189,0.306,0.289,0.275,0.153,0.095,southeast,0.7,No
2018/12/19,23:50,0.227,0.190,0.308,0.289,0.275,0.153,0.095,northeast,1.7,No
